Location: Skalnate Pleso
(49.1889°N, 20.2450°E)
Time: 09:44:26
(UTC+01:00)

FALCON 9 DEB - Pass Details

Date: 19 November 2019
Orbit: 430 x 444 km, 53.0° (Epoch: 06 December)

Event Time Altitude Azimuth Distance (km) Brightness Sun altitude
Exits shadow 05:51:57 15° 298° (WNW) 1,266 4.8 -10.2°
Maximum altitude 05:54:40 54° 14° (NNE) 531 3.5 -9.8°
Drops below altitude 10° 05:58:02 10° 93° (E) 1,531 7.3 -9.3°
Sets 06:00:11 0° 98° (E) 2,398 8.9 -8.9°
